Regional Weather Roundup
Issued by NWS Northern Indiana

Home | Current Version | Previous Version | Text Only | Print | Product List | Glossary Off
Versions: 1 2 3 4 5 6 7 8 9 10 11 12 13 14 15 16 17 18 19 20 21 22 23 24 25 26 27 28 29 30 31 32 33 34 35 36 37 38 39 40 41 42 43 44 45 46 47 48 49 50

000
ASUS43 KIWX 291500
RWRIWX

KIWX WEATHER ROUNDUP
NATIONAL WEATHER SERVICE NORTHERN INDIANA
1100 AM EDT FRI AUG 29 2014

NOTE: "FAIR" INDICATES FEW OR NO CLOUDS BELOW 12,000 FEET WITH NO
SIGNIFICANT WEATHER AND/OR OBSTRUCTIONS TO VISIBILITY.

* THESE STATIONS ARE NOT UNDER NWS QUALITY CONTROL. THEY ALSO MAY NOT
  REPORT WEATHER SUCH AS PRECIPITATION OR FOG.

INZ001>027-291600-
NORTHERN INDIANA

CITY           SKY/WX    TMP DP  RH WIND       PRES   REMARKS
GARY*          PTSUNNY   75  66  73 S9        30.02R
VALPARAISO     PTSUNNY   73  65  75 S8        30.04R
SOUTH BEND     CLOUDY    74  62  66 S12       30.06S
ELKHART*       CLOUDY    68  61  77 SE8       30.07S
GOSHEN         LGT RAIN  68  63  84 SE6       30.07S
MONTICELLO*    PTSUNNY   73  67  80 S5        30.03S
ANGOLA*        MOSUNNY   66  57  72 S8        30.10S
FORT WAYNE     MOSUNNY   72  63  73 S10       30.10S
PERU/GRISSOM   PTSUNNY   73  68  86 SE9       30.07R

$$
INZ028>050-291600-
CENTRAL INDIANA

CITY           SKY/WX    TMP DP  RH WIND       PRES   REMARKS
LAFAYETTE      MOSUNNY   74  66  76 SE8       30.03S
KOKOMO*        PTSUNNY   72  64  78 S9G17     30.08R
MUNCIE*        MOSUNNY   74  61  63 S8        30.09R
INDIANAPOLIS   LGT RAIN  71  64  78 SE8       30.06R

$$
MIZ043>046-050>051-056>058-064>065-071>073-077>080-291600-
SOUTHWEST LOWER MICHIGAN

CITY           SKY/WX    TMP DP  RH WIND       PRES   REMARKS
BATTLE CREEK   CLOUDY    66  56  70 SE9       30.09S
BENTON HARBOR  CLOUDY    69  61  75 SE8       30.03F
COLDWATER*     CLOUDY    66  59  76 SE6       30.10S
HILLSDALE*     CLOUDY    65  56  73 S5        30.12S
HOLLAND        CLOUDY    67  61  81 SE9       30.04F
GRAND RAPIDS   CLOUDY    66  58  75 SE9       30.07S
KALAMAZOO      CLOUDY    67  57  70 S9        30.07F
STURGIS*         N/A     66  59  77 SE8       30.08S
THREE RIVERS*  FAIR      68  59  72 SE8       30.08F

$$
OHZ001>008-015>018-024>025-291600-
NORTHWEST OHIO

CITY           SKY/WX    TMP DP  RH WIND       PRES   REMARKS
DEFIANCE       PTSUNNY   71  57  61 SE6       30.11F
FINDLAY        SUNNY     71  57  61 SE9       30.12S
TOLEDO EXPRESS PTSUNNY   67  56  67 S3        30.12F
TOLEDO METCALF MOSUNNY   69  56  62 SE9       30.14F
LIMA           SUNNY     73  60  63 S9        30.12S

$$
&&



USA.gov is the U.S. government's official web portal to all federal, state and local government web resources and services.